M I D A S
Marine Information and Data Acquisition System
Tripno 2164 of the Zeeleeuw from 2011-08-16 06:28:40 to 2011-08-16 14:17:33
Back to CruiseResearch ActivitiesStationsMapUnderway DataData graphs

EquipmentUnitsComments
TimeDGPSUTC
LatitudeDGPSDM.mWGS84
LongitudeDGPSDM.mWGS84
SpeedMeteo Stationm/sRelative wind speed
DirectionMeteo StationdegRelative wind direction
TemperatureMeteo Stationdeg CelciusAir temperature
PressureMeteo StationPaAtmospheric pressure
HumidityMeteo Station%Relative humidity
Missing or incorrect values are displayed as -999
Metereological data collected by the RV Zeeleeuw from 2011-08-16 06:30:26 to 2011-08-16 14:30:31
                                                                                    Next 1000 lines
Time Latitude Longitude Speed Direction Temperature Pressure Humidity
2011-08-16 06:30:36 51°13.636 2°56.016 0.1 12 15.2 101780 48
2011-08-16 06:30:41 51°13.636 2°56.015 -999 13 15.2 101780 48
2011-08-16 06:30:46 51°13.637 2°56.014 -999 16 15.2 101780 48
2011-08-16 06:30:51 51°13.638 2°56.011 2.3 18 15.2 101780 48
2011-08-16 06:30:56 51°13.639 2°56.007 2.5 22 15.2 101780 48
2011-08-16 06:31:01 51°13.641 2°56.003 2.4 27 15.2 101780 48
2011-08-16 06:31:06 51°13.642 2°56 1.8 28 15.2 101780 48
2011-08-16 06:31:11 51°13.643 2°55.996 0.9 21 15.2 101780 48
2011-08-16 06:31:16 51°13.644 2°55.993 1 25 15.2 101780 48
2011-08-16 06:31:21 51°13.646 2°55.989 1.2 21 15.2 101780 48
2011-08-16 06:31:26 51°13.647 2°55.986 0.4 14 15.2 101790 48
2011-08-16 06:31:31 51°13.648 2°55.983 0.1 17 15.2 101790 48
2011-08-16 06:31:36 51°13.649 2°55.979 0.1 23 15.2 101780 48
2011-08-16 06:31:41 51°13.65 2°55.976 0.1 21 15.2 101780 48
2011-08-16 06:31:46 51°13.652 2°55.972 0.2 22 15.2 101780 48
2011-08-16 06:31:51 51°13.653 2°55.968 0.1 18 15.2 101780 48
2011-08-16 06:31:56 51°13.654 2°55.965 0.1 24 15.2 101780 48
2011-08-16 06:32:01 51°13.655 2°55.961 -999 36 15.2 101780 48
2011-08-16 06:32:06 51°13.656 2°55.958 -999 42 15.2 101790 48
2011-08-16 06:32:11 51°13.657 2°55.954 -999 35 15.2 101790 48
2011-08-16 06:32:16 51°13.658 2°55.95 -999 34 15.2 101780 48
2011-08-16 06:32:21 51°13.659 2°55.945 -999 28 15.2 101780 48
2011-08-16 06:32:26 51°13.66 2°55.94 -999 32 15.2 101790 48
2011-08-16 06:32:31 51°13.661 2°55.935 0.3 28 15.2 101790 48
2011-08-16 06:32:36 51°13.662 2°55.929 1.1 34 15.2 101780 47
2011-08-16 06:32:41 51°13.662 2°55.923 0.2 40 15.2 101780 47
2011-08-16 06:32:46 51°13.664 2°55.917 0.4 36 15.2 101780 48
2011-08-16 06:32:51 51°13.665 2°55.91 0.2 29 15.2 101780 48
2011-08-16 06:32:56 51°13.666 2°55.904 1.5 43 15.2 101780 48
2011-08-16 06:33:01 51°13.666 2°55.897 0.6 45 15.2 101780 48
2011-08-16 06:33:06 51°13.667 2°55.89 1.2 25 15.2 101780 47
2011-08-16 06:33:11 51°13.668 2°55.882 0.2 35 15.2 101780 47
2011-08-16 06:33:16 51°13.669 2°55.875 0.1 43 15.2 101780 48
2011-08-16 06:33:21 51°13.67 2°55.867 1.4 41 15.2 101780 48
2011-08-16 06:33:26 51°13.671 2°55.859 1.9 77 15.3 101780 48
2011-08-16 06:33:31 51°13.672 2°55.851 2.3 38 15.3 101780 48
2011-08-16 06:33:36 51°13.673 2°55.843 2.5 20 15.2 101780 48
2011-08-16 06:33:41 51°13.674 2°55.835 1.8 42 15.2 101780 48
2011-08-16 06:33:46 51°13.675 2°55.826 1.4 45 15.3 101780 48
2011-08-16 06:33:51 51°13.676 2°55.818 1 43 15.3 101780 48
2011-08-16 06:33:56 51°13.677 2°55.81 2.3 77 15.3 101780 48
2011-08-16 06:34:01 51°13.677 2°55.801 2.9 39 15.3 101780 48
2011-08-16 06:34:06 51°13.678 2°55.794 3.2 26 15.3 101780 49
2011-08-16 06:34:11 51°13.679 2°55.786 3.2 41 15.3 101780 49
2011-08-16 06:34:16 51°13.679 2°55.779 2.7 42 15.3 101780 48
2011-08-16 06:34:21 51°13.679 2°55.772 2.6 38 15.3 101780 48
2011-08-16 06:34:26 51°13.68 2°55.766 2.5 28 15.3 101780 49
2011-08-16 06:34:31 51°13.68 2°55.761 2.6 39 15.3 101780 49
2011-08-16 06:34:36 51°13.68 2°55.757 3.5 26 15.3 101780 48
2011-08-16 06:34:41 51°13.68 2°55.754 2.7 42 15.3 101780 48
2011-08-16 06:34:46 51°13.681 2°55.753 2.2 41 15.3 101780 48
2011-08-16 06:34:51 51°13.681 2°55.754 1.7 34 15.3 101780 48
2011-08-16 06:34:55 51°13.682 2°55.755 0.9 78 15.3 101780 48
2011-08-16 06:35:00 51°13.683 2°55.757 0.2 35 15.3 101780 48
2011-08-16 06:35:05 51°13.686 2°55.761 0.1 78 15.3 101780 47
2011-08-16 06:35:10 51°13.688 2°55.764 0.1 36 15.3 101780 47
2011-08-16 06:35:15 51°13.691 2°55.767 -999 25 15.3 101780 46
2011-08-16 06:35:20 51°13.695 2°55.77 -999 36 15.3 101780 46
2011-08-16 06:35:25 51°13.698 2°55.772 -999 78 15.3 101780 48
2011-08-16 06:35:30 51°13.701 2°55.775 -999 36 15.3 101780 48
2011-08-16 06:35:35 51°13.704 2°55.776 -999 24 15.2 101780 48
2011-08-16 06:35:40 51°13.707 2°55.778 -999 36 15.2 101780 48
2011-08-16 06:35:46 51°13.71 2°55.779 -999 25 15.3 101780 48
2011-08-16 06:35:51 51°13.712 2°55.779 -999 35 15.3 101780 48
2011-08-16 06:35:55 51°13.713 2°55.78 0.3 78 15.3 101780 48
2011-08-16 06:36:00 51°13.715 2°55.78 0.1 35 15.3 101780 48
2011-08-16 06:36:06 51°13.716 2°55.78 0.1 78 15.3 101780 48
2011-08-16 06:36:11 51°13.717 2°55.781 0.1 39 15.3 101780 48
2011-08-16 06:36:16 51°13.718 2°55.781 1.4 29 15.3 101780 48
2011-08-16 06:36:21 51°13.718 2°55.781 0.1 35 15.3 101780 48
2011-08-16 06:36:26 51°13.717 2°55.781 0.1 24 15.3 101780 48
2011-08-16 06:36:31 51°13.716 2°55.781 1.9 32 15.3 101780 48
2011-08-16 06:36:36 51°13.716 2°55.781 2 27 15.3 101780 48
2011-08-16 06:36:41 51°13.715 2°55.781 2.2 41 15.3 101780 48
2011-08-16 06:36:46 51°13.714 2°55.782 2.6 23 15.3 101780 48
2011-08-16 06:36:51 51°13.714 2°55.782 3.6 39 15.3 101780 48
2011-08-16 06:36:56 51°13.713 2°55.782 2.5 81 15.3 101780 48
2011-08-16 06:37:01 51°13.714 2°55.782 2.5 38 15.3 101780 48
2011-08-16 06:37:06 51°13.715 2°55.781 2.5 20 15.3 101780 47
2011-08-16 06:37:11 51°13.716 2°55.779 0.9 263 15.3 101780 47
2011-08-16 06:37:16 51°13.719 2°55.778 0.2 262 15.3 101790 48
2011-08-16 06:37:21 51°13.721 2°55.776 0.1 260 15.3 101790 48
2011-08-16 06:37:26 51°13.724 2°55.773 0.1 259 15.3 101780 46
2011-08-16 06:37:31 51°13.727 2°55.768 0.1 263 15.3 101780 46
2011-08-16 06:37:35 51°13.73 2°55.764 0.1 260 15.3 101790 48
2011-08-16 06:37:41 51°13.735 2°55.757 -999 246 15.3 101790 48
2011-08-16 06:37:46 51°13.739 2°55.75 -999 282 15.3 101780 48
2011-08-16 06:37:51 51°13.744 2°55.743 -999 36 15.3 101780 48
2011-08-16 06:37:55 51°13.748 2°55.737 -999 24 15.3 101780 46
2011-08-16 06:38:00 51°13.753 2°55.728 -999 243 15.3 101780 46
2011-08-16 06:38:06 51°13.76 2°55.717 -999 24 15.3 101780 48
2011-08-16 06:38:11 51°13.766 2°55.708 -999 35 15.3 101780 48
2011-08-16 06:38:15 51°13.771 2°55.701 -999 24 15.3 101780 48
2011-08-16 06:38:20 51°13.777 2°55.692 -999 35 15.3 101780 48
2011-08-16 06:38:25 51°13.784 2°55.683 -999 318 15.3 101780 48
2011-08-16 06:38:31 51°13.791 2°55.674 -999 235 15.3 101780 48
2011-08-16 06:38:35 51°13.797 2°55.667 -999 24 15.3 101780 48
2011-08-16 06:38:40 51°13.803 2°55.659 -999 236 15.3 101780 48
2011-08-16 06:38:45 51°13.81 2°55.652 -999 24 15.3 101780 48
2011-08-16 06:38:51 51°13.819 2°55.644 -999 236 15.3 101780 48
2011-08-16 06:38:55 51°13.825 2°55.638 -999 282 15.4 101780 48
2011-08-16 06:39:01 51°13.833 2°55.631 -999 235 15.4 101780 48
2011-08-16 06:39:06 51°13.84 2°55.625 -999 24 15.4 101780 48
2011-08-16 06:39:11 51°13.848 2°55.619 -999 238 15.4 101780 48
2011-08-16 06:39:16 51°13.855 2°55.613 -999 282 15.4 101780 48
2011-08-16 06:39:21 51°13.863 2°55.607 -999 316 15.4 101780 48
2011-08-16 06:39:26 51°13.87 2°55.601 -999 282 15.4 101780 48
2011-08-16 06:39:31 51°13.878 2°55.596 -999 322 15.4 101780 48
2011-08-16 06:39:36 51°13.886 2°55.59 -999 24 15.4 101780 48
2011-08-16 06:39:41 51°13.893 2°55.584 -999 240 15.4 101780 48
2011-08-16 06:39:46 51°13.901 2°55.579 -999 282 15.4 101780 48
2011-08-16 06:39:51 51°13.909 2°55.574 -999 245 15.4 101780 48
2011-08-16 06:39:56 51°13.917 2°55.568 -999 247 15.4 101780 48
2011-08-16 06:40:01 51°13.926 2°55.562 -999 36 15.4 101780 48
2011-08-16 06:40:06 51°13.934 2°55.557 -999 282 15.4 101780 48
2011-08-16 06:40:11 51°13.942 2°55.551 -999 242 15.4 101780 48
2011-08-16 06:40:16 51°13.95 2°55.545 -999 24 15.4 101780 48
2011-08-16 06:40:21 51°13.959 2°55.539 -999 242 15.4 101780 48
2011-08-16 06:40:26 51°13.967 2°55.533 -999 282 15.4 101780 48
2011-08-16 06:40:31 51°13.976 2°55.527 -999 251 15.4 101780 48
2011-08-16 06:40:36 51°13.984 2°55.521 -999 247 15.4 101780 46
2011-08-16 06:40:41 51°13.993 2°55.514 -999 243 15.4 101780 46
2011-08-16 06:40:46 51°14.001 2°55.508 -999 24 15.4 101780 48
2011-08-16 06:40:51 51°14.01 2°55.502 -999 249 15.4 101780 48
2011-08-16 06:40:56 51°14.019 2°55.496 -999 24 15.4 101780 48
2011-08-16 06:41:01 51°14.028 2°55.49 -999 240 15.4 101780 48
2011-08-16 06:41:06 51°14.037 2°55.483 -999 24 15.4 101780 48
2011-08-16 06:41:11 51°14.046 2°55.477 2.9 320 15.4 101780 48
2011-08-16 06:41:16 51°14.055 2°55.471 0.1 282 15.4 101780 48
2011-08-16 06:41:21 51°14.064 2°55.464 0.1 320 15.4 101780 48
2011-08-16 06:41:26 51°14.073 2°55.458 0.1 319 15.5 101780 48
2011-08-16 06:41:31 51°14.082 2°55.452 -999 332 15.5 101780 48
2011-08-16 06:41:36 51°14.091 2°55.445 -999 329 15.5 101780 48
2011-08-16 06:41:41 51°14.1 2°55.439 -999 36 15.5 101780 48
2011-08-16 06:41:46 51°14.109 2°55.432 -999 24 15.5 101780 48
2011-08-16 06:41:51 51°14.118 2°55.425 -999 248 15.5 101780 48
2011-08-16 06:41:55 51°14.126 2°55.42 -999 281 15.5 101780 48
2011-08-16 06:42:01 51°14.137 2°55.411 -999 236 15.5 101780 48
2011-08-16 06:42:06 51°14.146 2°55.404 -999 25 15.5 101780 48
2011-08-16 06:42:11 51°14.155 2°55.397 -999 238 15.5 101780 48
2011-08-16 06:42:15 51°14.162 2°55.392 -999 24 15.5 101780 48
2011-08-16 06:42:20 51°14.171 2°55.384 -999 36 15.5 101780 48
2011-08-16 06:42:25 51°14.18 2°55.377 -999 281 15.5 101780 48
2011-08-16 06:42:30 51°14.19 2°55.37 -999 36 15.5 101780 48
2011-08-16 06:42:35 51°14.198 2°55.362 -999 24 15.5 101780 48
2011-08-16 06:42:40 51°14.207 2°55.355 -999 36 15.5 101780 48
2011-08-16 06:42:45 51°14.216 2°55.347 -999 24 15.5 101780 48
2011-08-16 06:42:50 51°14.225 2°55.34 -999 325 15.5 101780 48
2011-08-16 06:42:55 51°14.234 2°55.332 -999 282 15.5 101780 48
2011-08-16 06:42:59 51°14.241 2°55.326 -999 237 15.5 101780 48
2011-08-16 06:43:05 51°14.252 2°55.317 -999 24 15.5 101780 48
2011-08-16 06:43:10 51°14.261 2°55.309 -999 36 15.5 101780 48
2011-08-16 06:43:15 51°14.27 2°55.301 -999 281 15.5 101780 46
2011-08-16 06:43:20 51°14.278 2°55.293 -999 36 15.5 101780 46
2011-08-16 06:43:25 51°14.287 2°55.284 -999 24 15.6 101780 48
2011-08-16 06:43:30 51°14.296 2°55.276 -999 322 15.6 101780 48
2011-08-16 06:43:35 51°14.305 2°55.268 -999 318 15.6 101780 48
2011-08-16 06:43:40 51°14.314 2°55.26 -999 36 15.6 101780 48
2011-08-16 06:43:45 51°14.323 2°55.252 -999 24 15.6 101780 48
2011-08-16 06:43:50 51°14.332 2°55.244 -999 237 15.6 101780 48
2011-08-16 06:43:55 51°14.34 2°55.235 -999 282 15.6 101780 48
2011-08-16 06:44:00 51°14.349 2°55.227 -999 239 15.6 101780 48
2011-08-16 06:44:05 51°14.358 2°55.218 -999 24 15.6 101780 48
2011-08-16 06:44:10 51°14.366 2°55.21 -999 239 15.6 101780 48
2011-08-16 06:44:15 51°14.375 2°55.201 -999 25 15.6 101770 48
2011-08-16 06:44:19 51°14.382 2°55.194 -999 36 15.6 101770 48
2011-08-16 06:44:24 51°14.39 2°55.186 -999 281 15.6 101780 48
2011-08-16 06:44:29 51°14.399 2°55.177 -999 242 15.6 101780 48
2011-08-16 06:44:34 51°14.408 2°55.168 -999 25 15.6 101780 48
2011-08-16 06:44:39 51°14.416 2°55.16 -999 241 15.6 101780 48
2011-08-16 06:44:44 51°14.425 2°55.151 -999 282 15.6 101780 48
2011-08-16 06:44:49 51°14.433 2°55.142 -999 242 15.6 101780 48
2011-08-16 06:44:54 51°14.442 2°55.133 -999 282 15.7 101780 48
2011-08-16 06:44:59 51°14.451 2°55.124 -999 240 15.7 101780 48
2011-08-16 06:45:04 51°14.459 2°55.115 -999 24 15.6 101780 48
2011-08-16 06:45:09 51°14.467 2°55.107 -999 241 15.6 101780 48
2011-08-16 06:45:14 51°14.476 2°55.098 -999 25 15.7 101780 47
2011-08-16 06:45:19 51°14.484 2°55.088 -999 244 15.7 101780 47
2011-08-16 06:45:23 51°14.491 2°55.081 -999 24 15.7 101770 48
2011-08-16 06:45:28 51°14.499 2°55.071 -999 242 15.7 101770 48
2011-08-16 06:45:33 51°14.508 2°55.061 -999 25 15.7 101770 47
2011-08-16 06:45:38 51°14.517 2°55.051 -999 36 15.7 101770 47
2011-08-16 06:45:43 51°14.526 2°55.04 -999 25 15.7 101770 47
2011-08-16 06:45:48 51°14.535 2°55.028 -999 239 15.7 101770 47
2011-08-16 06:45:53 51°14.545 2°55.016 -999 24 15.7 101780 46
2011-08-16 06:45:58 51°14.554 2°55.003 6.1 240 15.7 101780 46
2011-08-16 06:46:03 51°14.563 2°54.99 6.2 25 15.7 101770 47
2011-08-16 06:46:07 51°14.571 2°54.979 7.6 240 15.7 101770 47
2011-08-16 06:46:12 51°14.58 2°54.964 7.1 21 15.7 101770 47
2011-08-16 06:46:18 51°14.591 2°54.947 7.6 241 15.7 101770 47
2011-08-16 06:46:23 51°14.601 2°54.932 7.6 26 15.7 101770 48
2011-08-16 06:46:27 51°14.61 2°54.921 6.6 243 15.7 101770 48
2011-08-16 06:46:32 51°14.62 2°54.907 5.9 23 15.7 101770 47
2011-08-16 06:46:38 51°14.633 2°54.89 7 241 15.7 101770 47
2011-08-16 06:46:43 51°14.643 2°54.876 6.7 285 15.8 101770 48
2011-08-16 06:46:47 51°14.652 2°54.865 7 243 15.8 101770 48
2011-08-16 06:46:52 51°14.663 2°54.851 6.2 19 15.8 101760 48
2011-08-16 06:46:57 51°14.674 2°54.836 6 241 15.8 101760 48
2011-08-16 06:47:03 51°14.688 2°54.819 5.6 286 15.8 101770 47
2011-08-16 06:47:07 51°14.697 2°54.808 5.8 237 15.8 101770 47
2011-08-16 06:47:12 51°14.708 2°54.793 6 278 15.8 101770 47
2011-08-16 06:47:17 51°14.72 2°54.778 7.6 240 15.8 101770 47
2011-08-16 06:47:23 51°14.735 2°54.76 7.2 278 15.8 101770 48
2011-08-16 06:47:27 51°14.744 2°54.748 6.5 238 15.8 101770 48
2011-08-16 06:47:33 51°14.759 2°54.729 6.6 28 15.8 101770 48
2011-08-16 06:47:38 51°14.771 2°54.713 6.7 237 15.8 101770 48
2011-08-16 06:47:43 51°14.784 2°54.697 6.4 278 15.8 101770 48
2011-08-16 06:47:47 51°14.794 2°54.684 7.3 239 15.8 101770 48
2011-08-16 06:47:52 51°14.807 2°54.666 6.8 284 15.8 101770 48
2011-08-16 06:47:58 51°14.823 2°54.646 6.7 233 15.8 101770 48
2011-08-16 06:48:03 51°14.837 2°54.63 6.5 287 15.8 101760 47
2011-08-16 06:48:07 51°14.848 2°54.617 7.7 36 15.8 101760 47
2011-08-16 06:48:12 51°14.863 2°54.6 6.4 281 15.8 101760 48
2011-08-16 06:48:18 51°14.88 2°54.58 6.4 38 15.8 101760 48
2011-08-16 06:48:22 51°14.891 2°54.567 6.6 285 15.8 101770 47
2011-08-16 06:48:27 51°14.906 2°54.55 5.9 32 15.8 101770 47
2011-08-16 06:48:32 51°14.92 2°54.533 7.7 26 15.8 101760 45
2011-08-16 06:48:38 51°14.937 2°54.513 5.6 234 15.8 101760 48
2011-08-16 06:48:43 51°14.951 2°54.496 6.7 280 15.8 101760 48
2011-08-16 06:48:47 51°14.963 2°54.483 6 235 15.8 101760 48
2011-08-16 06:48:52 51°14.977 2°54.466 6.9 284 15.8 101760 48
2011-08-16 06:48:58 51°14.994 2°54.446 5.5 32 15.8 101760 47
2011-08-16 06:49:03 51°15.008 2°54.428 6.7 279 15.8 101760 47
2011-08-16 06:49:07 51°15.018 2°54.413 7.3 33 15.8 101760 47
2011-08-16 06:49:12 51°15.032 2°54.396 7.5 279 15.8 101760 47
2011-08-16 06:49:17 51°15.046 2°54.379 6 234 15.8 101760 47
2011-08-16 06:49:23 51°15.063 2°54.357 6.6 285 15.8 101760 48
2011-08-16 06:49:27 51°15.074 2°54.343 6.7 31 15.8 101760 48
2011-08-16 06:49:33 51°15.091 2°54.322 6.4 27 15.8 101760 47
2011-08-16 06:49:38 51°15.105 2°54.305 6.5 33 15.8 101760 47
2011-08-16 06:49:43 51°15.118 2°54.287 8.1 280 15.8 101760 48
2011-08-16 06:49:47 51°15.13 2°54.273 8.2 31 15.8 101760 48
2011-08-16 06:49:52 51°15.143 2°54.254 7.7 283 15.9 101760 47
2011-08-16 06:49:58 51°15.159 2°54.233 6.6 35 15.9 101760 47
2011-08-16 06:50:02 51°15.171 2°54.219 5.8 285 15.9 101770 47
2011-08-16 06:50:07 51°15.185 2°54.202 5.7 32 15.9 101770 47
2011-08-16 06:50:12 51°15.198 2°54.183 6.9 286 15.9 101760 48
2011-08-16 06:50:18 51°15.214 2°54.161 7.8 32 15.9 101760 48
2011-08-16 06:50:22 51°15.225 2°54.146 6.7 278 15.9 101760 48
2011-08-16 06:50:27 51°15.239 2°54.128 7.2 32 15.9 101760 48
2011-08-16 06:50:33 51°15.256 2°54.107 6.8 22 15.9 101760 47
2011-08-16 06:50:38 51°15.269 2°54.089 6.8 37 15.9 101760 47
2011-08-16 06:50:43 51°15.283 2°54.071 6.3 286 15.9 101760 47
2011-08-16 06:50:47 51°15.294 2°54.057 6.2 32 15.9 101760 47
2011-08-16 06:50:52 51°15.309 2°54.041 7.3 282 15.9 101760 47
2011-08-16 06:50:58 51°15.326 2°54.021 6 34 15.9 101760 47
2011-08-16 06:51:03 51°15.341 2°54.005 7.2 282 15.9 101760 48
2011-08-16 06:51:07 51°15.353 2°53.992 6.2 31 15.9 101760 48
2011-08-16 06:51:12 51°15.367 2°53.976 6.6 286 15.9 101760 47
2011-08-16 06:51:18 51°15.385 2°53.956 8.1 37 15.9 101760 47
2011-08-16 06:51:23 51°15.399 2°53.941 8.5 285 15.9 101760 48
2011-08-16 06:51:27 51°15.411 2°53.927 6.5 37 15.9 101760 48
2011-08-16 06:51:33 51°15.429 2°53.908 6 28 15.9 101760 48
2011-08-16 06:51:38 51°15.443 2°53.892 7.8 232 15.9 101760 48
2011-08-16 06:51:43 51°15.457 2°53.874 8.2 278 15.9 101760 47
2011-08-16 06:51:47 51°15.469 2°53.861 8 234 15.9 101760 47
2011-08-16 06:51:52 51°15.483 2°53.844 8.1 280 15.8 101760 48
2011-08-16 06:51:58 51°15.5 2°53.823 7.4 235 15.8 101760 48
2011-08-16 06:52:02 51°15.511 2°53.809 7 283 15.8 101770 47
2011-08-16 06:52:07 51°15.526 2°53.792 7.2 236 15.8 101770 47
2011-08-16 06:52:12 51°15.54 2°53.775 7.2 283 15.8 101760 48
2011-08-16 06:52:17 51°15.555 2°53.759 7.1 235 15.8 101760 48
2011-08-16 06:52:23 51°15.572 2°53.739 6.7 285 15.8 101760 47
2011-08-16 06:52:27 51°15.584 2°53.726 7.9 30 15.8 101760 48
2011-08-16 06:52:33 51°15.601 2°53.705 8.4 19 15.8 101760 48
2011-08-16 06:52:38 51°15.616 2°53.689 7.3 31 15.8 101760 48
2011-08-16 06:52:43 51°15.63 2°53.673 6.6 282 15.8 101760 47
2011-08-16 06:52:47 51°15.642 2°53.66 7 237 15.8 101760 47
2011-08-16 06:52:53 51°15.661 2°53.643 6.5 286 15.9 101760 47
2011-08-16 06:52:58 51°15.676 2°53.627 6.4 30 15.9 101760 47
2011-08-16 06:53:03 51°15.691 2°53.613 6.8 284 15.8 101760 48
2011-08-16 06:53:07 51°15.704 2°53.603 5.3 239 15.8 101760 48
2011-08-16 06:53:12 51°15.72 2°53.59 5.7 285 15.8 101760 48
2011-08-16 06:53:18 51°15.739 2°53.575 5.2 237 15.8 101760 48
2011-08-16 06:53:23 51°15.755 2°53.562 6.2 283 15.8 101760 48
2011-08-16 06:53:27 51°15.768 2°53.553 5.7 237 15.8 101760 48
2011-08-16 06:53:32 51°15.783 2°53.541 6.3 21 15.8 101770 47
2011-08-16 06:53:38 51°15.803 2°53.527 4.5 237 15.8 101770 47
2011-08-16 06:53:43 51°15.819 2°53.516 5.4 281 15.9 101760 48
2011-08-16 06:53:47 51°15.832 2°53.508 5.6 241 15.9 101760 48
2011-08-16 06:53:52 51°15.848 2°53.496 5.2 278 15.8 101760 46
2011-08-16 06:53:57 51°15.864 2°53.484 5.2 236 15.8 101760 46
2011-08-16 06:54:03 51°15.884 2°53.471 5.1 278 15.8 101760 48
2011-08-16 06:54:07 51°15.896 2°53.461 6.4 240 15.8 101770 48
2011-08-16 06:54:12 51°15.912 2°53.448 6.7 280 15.8 101770 48
2011-08-16 06:54:18 51°15.931 2°53.432 7.5 240 15.8 101770 48
2011-08-16 06:54:23 51°15.946 2°53.419 6.8 286 15.9 101760 47
2011-08-16 06:54:27 51°15.959 2°53.408 6.2 232 15.9 101760 47
2011-08-16 06:54:33 51°15.978 2°53.391 7.2 279 15.9 101760 48
2011-08-16 06:54:38 51°15.993 2°53.377 7.8 32 15.9 101760 48
2011-08-16 06:54:43 51°16.008 2°53.362 7.5 278 15.9 101760 48
2011-08-16 06:54:48 51°16.023 2°53.348 6.1 237 15.9 101760 48
2011-08-16 06:54:52 51°16.035 2°53.336 7 279 15.9 101760 48
2011-08-16 06:54:58 51°16.054 2°53.319 5.8 239 15.9 101760 48
2011-08-16 06:55:02 51°16.066 2°53.307 6.9 281 15.9 101760 48
2011-08-16 06:55:07 51°16.081 2°53.292 6.6 33 15.9 101760 48
2011-08-16 06:55:13 51°16.099 2°53.275 5.5 285 15.9 101760 48
2011-08-16 06:55:18 51°16.115 2°53.261 6.2 241 15.9 101760 48
2011-08-16 06:55:23 51°16.13 2°53.247 7 284 15.9 101760 48
2011-08-16 06:55:27 51°16.143 2°53.236 6.7 241 15.9 101760 48
2011-08-16 06:55:32 51°16.158 2°53.221 6 281 16 101760 48
2011-08-16 06:55:38 51°16.176 2°53.205 6.4 238 16 101760 48
2011-08-16 06:55:43 51°16.192 2°53.191 8.5 279 16 101760 48
2011-08-16 06:55:47 51°16.204 2°53.181 6.2 33 16 101760 48
2011-08-16 06:55:52 51°16.22 2°53.168 7.6 282 16 101760 48
2011-08-16 06:55:57 51°16.236 2°53.155 7.2 237 16 101760 48
2011-08-16 06:56:03 51°16.255 2°53.139 6.1 286 16 101760 48
2011-08-16 06:56:07 51°16.267 2°53.129 6.8 238 16 101760 48
2011-08-16 06:56:13 51°16.286 2°53.114 8 283 16 101760 48
2011-08-16 06:56:18 51°16.302 2°53.101 6 241 16 101760 48
2011-08-16 06:56:23 51°16.317 2°53.089 6.7 282 16 101760 48
2011-08-16 06:56:27 51°16.33 2°53.079 6.5 238 16 101760 48
2011-08-16 06:56:32 51°16.346 2°53.066 6.3 280 16 101760 46
2011-08-16 06:56:38 51°16.365 2°53.052 6 239 16 101760 46
2011-08-16 06:56:42 51°16.378 2°53.043 5.5 283 16 101750 47
2011-08-16 06:56:48 51°16.397 2°53.029 6.8 238 16 101750 47
2011-08-16 06:56:52 51°16.41 2°53.02 5.4 280 16 101750 48
2011-08-16 06:56:58 51°16.43 2°53.007 5.7 242 16 101750 48
2011-08-16 06:57:02 51°16.443 2°52.998 5 278 16.1 101760 48
2011-08-16 06:57:07 51°16.459 2°52.987 6.7 239 16.1 101760 48
2011-08-16 06:57:13 51°16.479 2°52.975 7.3 278 16.1 101760 47
2011-08-16 06:57:18 51°16.494 2°52.963 6.9 241 16.1 101760 47
2011-08-16 06:57:23 51°16.51 2°52.952 7.6 280 16.1 101760 48
2011-08-16 06:57:27 51°16.523 2°52.943 7.7 240 16.1 101760 48
2011-08-16 06:57:33 51°16.542 2°52.928 7.6 283 16.1 101760 48
2011-08-16 06:57:38 51°16.558 2°52.916 6 31 16.1 101750 47
2011-08-16 06:57:43 51°16.575 2°52.904 6.6 286 16.1 101750 47
2011-08-16 06:57:47 51°16.587 2°52.894 8.7 238 16.1 101750 47
2011-08-16 06:57:52 51°16.603 2°52.881 7.2 280 16.1 101750 48
2011-08-16 06:57:58 51°16.622 2°52.866 8 237 16.1 101750 48
2011-08-16 06:58:03 51°16.638 2°52.853 6.9 278 16.1 101760 48
2011-08-16 06:58:07 51°16.65 2°52.842 7.8 236 16.1 101760 48
2011-08-16 06:58:12 51°16.665 2°52.829 7.8 279 16.1 101760 48
2011-08-16 06:58:18 51°16.684 2°52.812 6.4 237 16.1 101760 48
2011-08-16 06:58:23 51°16.699 2°52.798 7.7 280 16.1 101750 47
2011-08-16 06:58:27 51°16.712 2°52.787 7 239 16.1 101750 47
2011-08-16 06:58:32 51°16.727 2°52.774 7.3 280 16.1 101750 47
2011-08-16 06:58:38 51°16.746 2°52.758 7.9 238 16.1 101750 47
2011-08-16 06:58:43 51°16.761 2°52.745 6.8 284 16.2 101750 48
2011-08-16 06:58:47 51°16.773 2°52.735 6 237 16.2 101750 48
2011-08-16 06:58:52 51°16.789 2°52.722 6.3 281 16.2 101750 47
2011-08-16 06:58:57 51°16.804 2°52.709 6.4 235 16.2 101750 47
2011-08-16 06:59:02 51°16.819 2°52.696 7 281 16.2 101760 48
2011-08-16 06:59:07 51°16.835 2°52.683 7.2 32 16.2 101760 46
2011-08-16 06:59:13 51°16.853 2°52.667 6.5 283 16.2 101760 46
2011-08-16 06:59:18 51°16.868 2°52.655 6.4 30 16.2 101760 47
2011-08-16 06:59:23 51°16.884 2°52.642 6.1 284 16.2 101760 47
2011-08-16 06:59:27 51°16.896 2°52.632 6.2 235 16.2 101760 47
2011-08-16 06:59:33 51°16.915 2°52.617 6.9 279 16.2 101750 48
2011-08-16 06:59:38 51°16.93 2°52.605 5.8 239 16.2 101750 48
2011-08-16 06:59:43 51°16.946 2°52.594 5.5 278 16.2 101760 47
2011-08-16 06:59:47 51°16.959 2°52.585 5.9 240 16.2 101760 47
2011-08-16 06:59:52 51°16.975 2°52.575 6.5 281 16.2 101760 47
2011-08-16 06:59:58 51°16.994 2°52.562 6.4 31 16.2 101760 47
2011-08-16 07:00:03 51°17.01 2°52.552 7.3 279 16.2 101760 47
2011-08-16 07:00:07 51°17.023 2°52.544 6.3 237 16.2 101760 47
2011-08-16 07:00:12 51°17.04 2°52.536 6.2 285 16.2 101750 47
2011-08-16 07:00:18 51°17.059 2°52.527 5.1 240 16.2 101750 48
2011-08-16 07:00:23 51°17.076 2°52.521 5.9 286 16.2 101750 48
2011-08-16 07:00:27 51°17.09 2°52.518 6 238 16.2 101750 48
2011-08-16 07:00:32 51°17.106 2°52.515 5.3 284 16.2 101760 47
2011-08-16 07:00:37 51°17.123 2°52.514 6 237 16.2 101760 47
2011-08-16 07:00:43 51°17.144 2°52.514 5.1 284 16.2 101760 48
2011-08-16 07:00:47 51°17.157 2°52.514 5.2 239 16.2 101760 48
2011-08-16 07:00:52 51°17.174 2°52.514 4.4 283 16.2 101760 48
2011-08-16 07:00:57 51°17.191 2°52.515 4.9 243 16.2 101760 48
2011-08-16 07:01:02 51°17.208 2°52.516 4.4 286 16.2 101760 47
2011-08-16 07:01:07 51°17.225 2°52.517 5 239 16.2 101760 48
2011-08-16 07:01:13 51°17.245 2°52.519 3.9 280 16.2 101760 48
2011-08-16 07:01:18 51°17.262 2°52.52 3.9 239 16.2 101760 48
2011-08-16 07:01:23 51°17.279 2°52.521 4.1 285 16.2 101760 48
2011-08-16 07:01:27 51°17.293 2°52.523 5 243 16.2 101760 48
2011-08-16 07:01:33 51°17.313 2°52.524 5.2 284 16.2 101760 47
2011-08-16 07:01:38 51°17.33 2°52.525 4.4 242 16.2 101760 47
2011-08-16 07:01:43 51°17.347 2°52.526 4.6 279 16.2 101760 48
2011-08-16 07:01:47 51°17.36 2°52.526 4.8 243 16.2 101760 48
2011-08-16 07:01:52 51°17.377 2°52.527 5.3 277 16.2 101770 46
2011-08-16 07:01:58 51°17.398 2°52.527 5.4 244 16.2 101770 46
2011-08-16 07:02:03 51°17.415 2°52.528 5 284 16.2 101760 47
2011-08-16 07:02:07 51°17.429 2°52.528 5.7 242 16.2 101760 47
2011-08-16 07:02:12 51°17.445 2°52.529 4.6 283 16.2 101760 48
2011-08-16 07:02:18 51°17.466 2°52.53 4.8 244 16.3 101760 48
2011-08-16 07:02:23 51°17.483 2°52.531 5.4 285 16.3 101760 48
2011-08-16 07:02:27 51°17.496 2°52.534 4.1 247 16.3 101760 48
2011-08-16 07:02:32 51°17.513 2°52.54 3.9 285 16.2 101760 48
2011-08-16 07:02:37 51°17.529 2°52.547 3.7 247 16.2 101760 48
2011-08-16 07:02:43 51°17.547 2°52.557 2.9 279 16.3 101770 47
2011-08-16 07:02:47 51°17.559 2°52.566 1.9 243 16.3 101770 47
2011-08-16 07:02:52 51°17.574 2°52.577 1.5 279 16.3 101770 48
2011-08-16 07:02:57 51°17.588 2°52.59 1.2 249 16.3 101770 48
2011-08-16 07:03:03 51°17.604 2°52.608 0.7 286 16.3 101770 47
2011-08-16 07:03:07 51°17.614 2°52.621 0.2 317 16.3 101770 47
2011-08-16 07:03:13 51°17.629 2°52.642 0.1 281 16.3 101780 48
2011-08-16 07:03:18 51°17.639 2°52.661 0.1 338 16.3 101780 48
2011-08-16 07:03:23 51°17.649 2°52.681 0.3 12 16.3 101770 48
2011-08-16 07:03:27 51°17.657 2°52.698 0.9 10 16.3 101770 48
2011-08-16 07:03:32 51°17.665 2°52.72 0.5 9 16.3 101770 47
2011-08-16 07:03:38 51°17.675 2°52.747 0.8 9 16.3 101770 47
2011-08-16 07:03:42 51°17.682 2°52.765 1.1 4 16.3 101770 48
2011-08-16 07:03:47 51°17.689 2°52.788 1.4 10 16.3 101770 48
2011-08-16 07:03:52 51°17.696 2°52.811 1.1 3 16.4 101770 47
2011-08-16 07:03:58 51°17.706 2°52.838 0.3 8 16.4 101770 47
2011-08-16 07:04:03 51°17.715 2°52.86 0.4 11 16.4 101780 47
2011-08-16 07:04:07 51°17.722 2°52.877 0.5 10 16.4 101780 47
2011-08-16 07:04:13 51°17.733 2°52.902 0.1 19 16.4 101770 47
2011-08-16 07:04:18 51°17.743 2°52.923 0.1 18 16.4 101770 47
2011-08-16 07:04:23 51°17.752 2°52.944 0.1 12 16.4 101770 47
2011-08-16 07:04:27 51°17.76 2°52.96 0.1 9 16.4 101770 47
2011-08-16 07:04:32 51°17.771 2°52.979 0.1 9 16.4 101770 46
2011-08-16 07:04:38 51°17.784 2°53.003 0.1 9 16.4 101770 46
2011-08-16 07:04:43 51°17.795 2°53.021 0.1 9 16.5 101780 47
2011-08-16 07:04:47 51°17.804 2°53.037 -999 9 16.5 101780 47
2011-08-16 07:04:52 51°17.815 2°53.055 -999 9 16.5 101770 47
2011-08-16 07:04:58 51°17.829 2°53.078 -999 9 16.5 101770 47
2011-08-16 07:05:03 51°17.84 2°53.096 -999 9 16.5 101770 47
2011-08-16 07:05:07 51°17.849 2°53.111 -999 9 16.5 101770 47
2011-08-16 07:05:12 51°17.861 2°53.13 -999 9 16.5 101780 47
2011-08-16 07:05:18 51°17.874 2°53.152 -999 8 16.5 101780 47
2011-08-16 07:05:23 51°17.886 2°53.171 -999 3 16.5 101780 48
2011-08-16 07:05:28 51°17.896 2°53.19 0.1 2 16.5 101780 48
2011-08-16 07:05:32 51°17.905 2°53.206 0.1 2 16.6 101770 48
2011-08-16 07:05:38 51°17.917 2°53.229 0.1 3 16.6 101770 48
2011-08-16 07:05:42 51°17.926 2°53.245 -999 2 16.6 101770 48
2011-08-16 07:05:47 51°17.937 2°53.265 0.1 357 16.6 101780 47
2011-08-16 07:05:53 51°17.95 2°53.288 0.1 359 16.6 101780 47
2011-08-16 07:05:58 51°17.961 2°53.307 0.1 359 16.6 101780 47
2011-08-16 07:06:03 51°17.972 2°53.327 0.1 355 16.6 101780 47
2011-08-16 07:06:07 51°17.981 2°53.342 0.1 353 16.7 101780 47
2011-08-16 07:06:13 51°17.995 2°53.364 -999 352 16.7 101780 47
2011-08-16 07:06:18 51°18.006 2°53.382 -999 333 16.7 101780 47
2011-08-16 07:06:23 51°18.018 2°53.399 -999 281 16.7 101770 47
2011-08-16 07:06:27 51°18.028 2°53.414 0.1 316 16.7 101770 47
2011-08-16 07:06:32 51°18.04 2°53.431 0.1 21 16.7 101770 47
2011-08-16 07:06:38 51°18.055 2°53.451 0.3 34 16.7 101770 47
2011-08-16 07:06:43 51°18.067 2°53.468 0.4 287 16.8 101770 48
2011-08-16 07:06:47 51°18.076 2°53.483 0.1 326 16.8 101770 48
2011-08-16 07:06:52 51°18.088 2°53.502 0.1 282 16.8 101770 47
2011-08-16 07:06:58 51°18.101 2°53.524 0.1 335 16.8 101770 47
2011-08-16 07:07:03 51°18.112 2°53.544 0.1 280 16.8 101770 47
2011-08-16 07:07:07 51°18.12 2°53.559 -999 350 16.8 101770 47
2011-08-16 07:07:12 51°18.129 2°53.581 0.1 356 16.8 101770 46
2011-08-16 07:07:18 51°18.14 2°53.607 0.1 358 16.8 101770 46
2011-08-16 07:07:23 51°18.148 2°53.629 0.7 3 16.9 101770 47
2011-08-16 07:07:27 51°18.154 2°53.647 0.4 -999 16.9 101770 47
2011-08-16 07:07:32 51°18.161 2°53.67 0.4 -999 16.9 101770 48
2011-08-16 07:07:37 51°18.169 2°53.693 0.5 3 16.9 101770 48
2011-08-16 07:07:43 51°18.177 2°53.721 1.3 358 16.9 101770 47
2011-08-16 07:07:47 51°18.183 2°53.739 1.2 9 16.9 101770 47
2011-08-16 07:07:53 51°18.191 2°53.767 1.9 12 16.9 101770 47
2011-08-16 07:07:58 51°18.198 2°53.79 0.7 14 16.9 101770 47
2011-08-16 07:08:03 51°18.206 2°53.813 1 20 16.9 101770 46
2011-08-16 07:08:07 51°18.213 2°53.83 0.5 19 16.9 101770 46
2011-08-16 07:08:13 51°18.223 2°53.857 0.2 8 16.9 101770 46
2011-08-16 07:08:18 51°18.232 2°53.878 0.3 8 16.9 101770 46
2011-08-16 07:08:23 51°18.241 2°53.9 0.6 15 16.9 101770 46
2011-08-16 07:08:27 51°18.249 2°53.917 0.2 12 16.9 101770 46
2011-08-16 07:08:32 51°18.258 2°53.938 0.1 -999 16.9 101770 47
2011-08-16 07:08:38 51°18.27 2°53.962 0.1 335 16.9 101770 47
2011-08-16 07:08:42 51°18.278 2°53.978 0.1 354 16.9 101770 47
2011-08-16 07:08:47 51°18.289 2°53.998 0.1 348 16.9 101770 47
2011-08-16 07:08:52 51°18.3 2°54.017 0.1 351 16.9 101770 46
2011-08-16 07:08:58 51°18.312 2°54.041 -999 351 16.9 101770 46
2011-08-16 07:09:03 51°18.323 2°54.06 0.1 5 16.9 101770 47
2011-08-16 07:09:07 51°18.331 2°54.077 0.1 2 16.9 101770 47
2011-08-16 07:09:12 51°18.342 2°54.097 0.2 2 17 101770 47
2011-08-16 07:09:18 51°18.353 2°54.122 0.1 7 17 101770 47
2011-08-16 07:09:23 51°18.363 2°54.143 0.1 10 17 101770 47
2011-08-16 07:09:27 51°18.37 2°54.16 -999 16 17 101770 47
2011-08-16 07:09:32 51°18.379 2°54.181 -999 8 17 101780 47
2011-08-16 07:09:37 51°18.389 2°54.203 -999 8 17 101780 47
2011-08-16 07:09:43 51°18.399 2°54.228 0.1 359 17.1 101770 47
2011-08-16 07:09:47 51°18.407 2°54.245 0.1 359 17.1 101780 45
2011-08-16 07:09:53 51°18.418 2°54.271 0.1 359 17.1 101780 45
2011-08-16 07:09:58 51°18.428 2°54.292 0.1 353 17.1 101780 45
2011-08-16 07:10:03 51°18.437 2°54.313 0.1 356 17.1 101770 46
2011-08-16 07:10:07 51°18.445 2°54.33 0.1 356 17.1 101770 46
2011-08-16 07:10:12 51°18.454 2°54.351 0.2 277 17.1 101780 46
2011-08-16 07:10:18 51°18.465 2°54.376 0.2 351 17.1 101780 46
2011-08-16 07:10:22 51°18.473 2°54.393 0.1 350 17.1 101780 47
2011-08-16 07:10:27 51°18.482 2°54.414 0.7 345 17.1 101780 47
2011-08-16 07:10:32 51°18.492 2°54.435 0.3 345 17.1 101780 46
2011-08-16 07:10:38 51°18.504 2°54.46 0.2 344 17.1 101780 46
2011-08-16 07:10:42 51°18.511 2°54.477 0.1 282 17.1 101780 47
2011-08-16 07:10:47 51°18.521 2°54.498 0.1 343 17.1 101780 47
2011-08-16 07:10:53 51°18.532 2°54.523 0.2 357 17.1 101770 46
2011-08-16 07:10:58 51°18.54 2°54.545 0.1 355 17.1 101780 47
2011-08-16 07:11:03 51°18.549 2°54.567 0.5 359 17.1 101780 47
2011-08-16 07:11:07 51°18.555 2°54.585 0.3 359 17.1 101780 47
2011-08-16 07:11:12 51°18.564 2°54.607 0.2 6 17.1 101780 47
2011-08-16 07:11:18 51°18.573 2°54.634 0.4 8 17.1 101780 47
2011-08-16 07:11:23 51°18.58 2°54.657 0.4 14 17.1 101780 47
2011-08-16 07:11:27 51°18.587 2°54.675 0.3 17 17.1 101780 46
2011-08-16 07:11:32 51°18.594 2°54.699 0.3 20 17.1 101780 46
2011-08-16 07:11:38 51°18.603 2°54.726 0.2 5 17.1 101780 46
2011-08-16 07:11:43 51°18.61 2°54.749 1.7 349 17.1 101780 46
2011-08-16 07:11:47 51°18.615 2°54.768 1.8 3 17.1 101780 46
2011-08-16 07:11:52 51°18.623 2°54.791 1.3 14 17.1 101770 46
2011-08-16 07:11:58 51°18.632 2°54.818 1.3 10 17.1 101770 46
2011-08-16 07:12:03 51°18.64 2°54.841 1 10 17.1 101780 46
2011-08-16 07:12:07 51°18.646 2°54.859 0.5 11 17.1 101780 46
2011-08-16 07:12:12 51°18.655 2°54.881 0.2 10 17.1 101780 47
2011-08-16 07:12:18 51°18.665 2°54.907 1.1 10 17.1 101780 47
2011-08-16 07:12:22 51°18.672 2°54.924 0.5 6 17 101780 46
2011-08-16 07:12:27 51°18.681 2°54.946 0.8 4 17 101780 45
2011-08-16 07:12:32 51°18.69 2°54.967 0.1 358 17 101780 45
2011-08-16 07:12:37 51°18.698 2°54.989 0.1 16 17 101780 45
2011-08-16 07:12:43 51°18.709 2°55.015 0.4 15 17 101780 46
2011-08-16 07:12:47 51°18.716 2°55.032 0.2 15 17 101780 46
2011-08-16 07:12:53 51°18.727 2°55.058 0.1 16 17 101780 46
2011-08-16 07:12:58 51°18.736 2°55.079 0.2 16 17 101780 46
2011-08-16 07:13:03 51°18.745 2°55.1 0.5 16 17 101780 46
2011-08-16 07:13:07 51°18.752 2°55.117 0.7 16 17 101780 46
2011-08-16 07:13:13 51°18.762 2°55.144 1.1 16 17 101780 47
2011-08-16 07:13:18 51°18.77 2°55.166 0.6 8 17 101780 47
2011-08-16 07:13:23 51°18.777 2°55.189 0.1 13 17 101790 46
2011-08-16 07:13:27 51°18.783 2°55.208 0.1 14 17 101790 46
2011-08-16 07:13:32 51°18.79 2°55.231 0.1 14 17 101790 47
2011-08-16 07:13:38 51°18.797 2°55.26 1.3 13 17 101790 47
2011-08-16 07:13:43 51°18.803 2°55.283 1.2 12 17 101780 46
2011-08-16 07:13:47 51°18.808 2°55.303 1.8 3 17 101780 46
2011-08-16 07:13:52 51°18.813 2°55.327 2.3 7 17 101780 46
2011-08-16 07:13:58 51°18.82 2°55.357 2.1 9 17 101780 46
2011-08-16 07:14:03 51°18.825 2°55.381 1.8 7 16.9 101780 46
2011-08-16 07:14:07 51°18.829 2°55.401 2.6 9 16.9 101780 46
2011-08-16 07:14:12 51°18.834 2°55.426 1.8 9 16.9 101780 46
2011-08-16 07:14:17 51°18.839 2°55.451 1.9 7 16.9 101780 46
2011-08-16 07:14:23 51°18.844 2°55.48 2.5 15 16.9 101780 47
2011-08-16 07:14:27 51°18.848 2°55.5 2.4 10 16.9 101790 47
2011-08-16 07:14:32 51°18.853 2°55.524 1.7 -999 16.9 101790 47
2011-08-16 07:14:38 51°18.86 2°55.553 2.4 8 16.9 101790 47
2011-08-16 07:14:43 51°18.867 2°55.577 1.7 3 16.9 101780 46
2011-08-16 07:14:47 51°18.872 2°55.596 1.9 5 16.9 101780 46
2011-08-16 07:14:53 51°18.88 2°55.623 1.9 8 16.9 101780 46
2011-08-16 07:14:58 51°18.887 2°55.647 2.3 8 16.9 101780 46
2011-08-16 07:15:03 51°18.894 2°55.67 2 10 16.9 101780 46
2011-08-16 07:15:07 51°18.899 2°55.689 2.1 6 16.9 101780 46
2011-08-16 07:15:13 51°18.908 2°55.716 2.3 2 16.9 101780 46
2011-08-16 07:15:18 51°18.915 2°55.739 2.5 359 16.9 101780 46
2011-08-16 07:15:23 51°18.922 2°55.762 2.2 3 16.9 101780 47
2011-08-16 07:15:27 51°18.927 2°55.781 1.9 6 16.9 101780 47
2011-08-16 07:15:32 51°18.934 2°55.804 1.8 3 16.9 101780 46
2011-08-16 07:15:38 51°18.942 2°55.832 2.3 357 16.9 101780 46
2011-08-16 07:15:43 51°18.949 2°55.856 1.9 3 16.8 101780 47
2011-08-16 07:15:47 51°18.954 2°55.874 1.9 6 16.8 101780 47
2011-08-16 07:15:52 51°18.961 2°55.898 2 3 16.8 101780 47
2011-08-16 07:15:58 51°18.969 2°55.925 1.7 9 16.8 101780 47
2011-08-16 07:16:03 51°18.976 2°55.948 1.6 4 16.8 101780 47
2011-08-16 07:16:07 51°18.981 2°55.967 2.6 10 16.8 101780 47
2011-08-16 07:16:12 51°18.988 2°55.991 2.3 13 16.8 101780 47
2011-08-16 07:16:18 51°18.995 2°56.019 3.3 7 16.8 101780 47
2011-08-16 07:16:23 51°18.999 2°56.044 3.5 6 16.8 101780 47
2011-08-16 07:16:27 51°19.003 2°56.064 2.9 5 16.8 101780 47
2011-08-16 07:16:33 51°19.009 2°56.093 3.2 5 16.8 101780 47
2011-08-16 07:16:38 51°19.014 2°56.118 3.2 8 16.8 101780 47
2011-08-16 07:16:43 51°19.019 2°56.142 3 4 16.8 101780 47
2011-08-16 07:16:47 51°19.022 2°56.162 3.6 5 16.8 101780 47
2011-08-16 07:16:53 51°19.028 2°56.191 4.3 9 16.8 101780 48
2011-08-16 07:16:58 51°19.033 2°56.216 3.9 6 16.8 101780 48
2011-08-16 07:17:03 51°19.037 2°56.241 3.5 9 16.7 101780 47
2011-08-16 07:17:08 51°19.042 2°56.265 3.3 5 16.7 101780 47
2011-08-16 07:17:12 51°19.046 2°56.285 3.2 8 16.7 101780 48
2011-08-16 07:17:18 51°19.053 2°56.314 2.3 8 16.7 101780 48
2011-08-16 07:17:22 51°19.059 2°56.332 1.9 5 16.7 101780 47
2011-08-16 07:17:27 51°19.066 2°56.355 2.1 14 16.7 101780 47
2011-08-16 07:17:33 51°19.074 2°56.383 1.5 11 16.6 101780 47
2011-08-16 07:17:38 51°19.082 2°56.406 1.8 10 16.6 101780 47
2011-08-16 07:17:43 51°19.09 2°56.429 1.4 6 16.6 101780 47
2011-08-16 07:17:47 51°19.096 2°56.447 1 6 16.6 101780 47
2011-08-16 07:17:52 51°19.104 2°56.469 1 12 16.6 101780 45
2011-08-16 07:17:58 51°19.114 2°56.496 1.1 11 16.6 101780 47
2011-08-16 07:18:03 51°19.122 2°56.519 1.1 11 16.6 101780 47
2011-08-16 07:18:07 51°19.128 2°56.537 0.2 10 16.6 101780 47
2011-08-16 07:18:12 51°19.136 2°56.559 0.2 10 16.6 101780 47
2011-08-16 07:18:18 51°19.144 2°56.587 1.3 3 16.6 101780 47
2011-08-16 07:18:23 51°19.151 2°56.611 1.8 10 16.6 101790 48
2011-08-16 07:18:27 51°19.156 2°56.63 2.5 9 16.6 101790 48
2011-08-16 07:18:33 51°19.163 2°56.658 2.5 14 16.6 101790 47
2011-08-16 07:18:38 51°19.168 2°56.682 2.5 9 16.6 101790 47
2011-08-16 07:18:43 51°19.174 2°56.707 3.8 9 16.6 101790 47
2011-08-16 07:18:47 51°19.178 2°56.726 4.1 16 16.6 101790 47
2011-08-16 07:18:52 51°19.183 2°56.751 4.1 12 16.6 101790 47
2011-08-16 07:18:58 51°19.19 2°56.78 3.6 14 16.6 101790 47
2011-08-16 07:19:03 51°19.195 2°56.804 3 13 16.6 101780 47
2011-08-16 07:19:08 51°19.2 2°56.828 2.6 16 16.6 101780 47
2011-08-16 07:19:12 51°19.204 2°56.848 1.9 13 16.6 101790 48
2011-08-16 07:19:18 51°19.211 2°56.877 2 16 16.6 101790 48
2011-08-16 07:19:22 51°19.215 2°56.897 2.4 12 16.6 101790 47
2011-08-16 07:19:27 51°19.22 2°56.921 2.4 18 16.6 101790 47
2011-08-16 07:19:33 51°19.227 2°56.95 2.1 -999 16.6 101790 47
2011-08-16 07:19:38 51°19.233 2°56.974 1.9 13 16.5 101780 47
2011-08-16 07:19:43 51°19.238 2°56.998 1.8 18 16.5 101780 47
2011-08-16 07:19:47 51°19.243 2°57.017 1.7 16 16.5 101780 47
2011-08-16 07:19:53 51°19.249 2°57.046 1.6 16 16.5 101790 47
2011-08-16 07:19:58 51°19.255 2°57.07 1.5 14 16.5 101790 47
2011-08-16 07:20:03 51°19.26 2°57.094 1.6 17 16.5 101780 48
2011-08-16 07:20:07 51°19.265 2°57.113 0.9 18 16.5 101780 48
2011-08-16 07:20:13 51°19.271 2°57.142 1.1 20 16.6 101790 47
2011-08-16 07:20:18 51°19.277 2°57.166 0.4 16 16.6 101790 47
2011-08-16 07:20:23 51°19.283 2°57.19 1.3 355 16.5 101790 47
2011-08-16 07:20:27 51°19.288 2°57.208 1.2 354 16.5 101790 47
2011-08-16 07:20:33 51°19.295 2°57.237 1.4 360 16.5 101780 46
2011-08-16 07:20:38 51°19.303 2°57.26 0.2 2 16.5 101780 47
2011-08-16 07:20:43 51°19.31 2°57.282 1.2 357 16.5 101780 47
2011-08-16 07:20:47 51°19.316 2°57.3 0.3 8 16.5 101780 47
2011-08-16 07:20:52 51°19.324 2°57.323 0.5 8 16.5 101790 48
2011-08-16 07:20:58 51°19.334 2°57.349 0.1 9 16.5 101790 48
2011-08-16 07:21:03 51°19.342 2°57.371 0.3 12 16.6 101790 48
2011-08-16 07:21:07 51°19.348 2°57.389 1.2 16 16.6 101790 48
2011-08-16 07:21:12 51°19.356 2°57.411 0.9 18 16.6 101780 48
2011-08-16 07:21:17 51°19.364 2°57.433 1 17 16.6 101780 48
2011-08-16 07:21:22 51°19.371 2°57.455 0.1 10 16.6 101790 48
2011-08-16 07:21:27 51°19.379 2°57.477 0.1 7 16.6 101780 47
2011-08-16 07:21:33 51°19.389 2°57.504 1 4 16.6 101780 47
2011-08-16 07:21:38 51°19.396 2°57.526 1.2 10 16.6 101780 47
2011-08-16 07:21:43 51°19.404 2°57.549 0.1 10 16.6 101790 47
2011-08-16 07:21:47 51°19.409 2°57.567 1 13 16.6 101780 47
2011-08-16 07:21:53 51°19.418 2°57.594 0.3 15 16.6 101780 47
2011-08-16 07:21:58 51°19.425 2°57.616 0.1 360 16.6 101780 47
2011-08-16 07:22:03 51°19.433 2°57.639 0.2 7 16.6 101780 48
2011-08-16 07:22:07 51°19.439 2°57.656 0.1 354 16.6 101780 48
2011-08-16 07:22:12 51°19.446 2°57.679 0.2 3 16.6 101780 47
2011-08-16 07:22:18 51°19.455 2°57.705 0.1 9 16.6 101780 47
2011-08-16 07:22:22 51°19.461 2°57.723 0.1 5 16.7 101790 48
2011-08-16 07:22:27 51°19.469 2°57.746 1.5 3 16.7 101790 48
2011-08-16 07:22:33 51°19.477 2°57.772 0.5 3 16.7 101780 48
2011-08-16 07:22:38 51°19.485 2°57.795 0.1 12 16.7 101780 48
2011-08-16 07:22:43 51°19.492 2°57.817 0.7 4 16.7 101780 48
2011-08-16 07:22:47 51°19.498 2°57.835 1.2 360 16.7 101780 48
2011-08-16 07:22:52 51°19.504 2°57.858 2 11 16.7 101780 48
2011-08-16 07:22:57 51°19.511 2°57.881 3.1 10 16.7 101780 48
2011-08-16 07:23:03 51°19.518 2°57.909 2.5 16 16.7 101780 48
2011-08-16 07:23:07 51°19.522 2°57.928 2.8 14 16.7 101780 46
2011-08-16 07:23:12 51°19.528 2°57.952 1.9 16 16.7 101780 46
2011-08-16 07:23:17 51°19.533 2°57.976 2.3 9 16.7 101780 46
2011-08-16 07:23:23 51°19.54 2°58.004 2.8 20 16.7 101780 48
2011-08-16 07:23:27 51°19.544 2°58.023 2.1 16 16.7 101780 47
2011-08-16 07:23:33 51°19.55 2°58.052 2 12 16.7 101780 47
2011-08-16 07:23:38 51°19.555 2°58.075 2.1 12 16.7 101780 47
2011-08-16 07:23:43 51°19.561 2°58.099 1.8 13 16.7 101780 48
2011-08-16 07:23:47 51°19.565 2°58.118 1.7 19 16.7 101780 48
2011-08-16 07:23:52 51°19.57 2°58.142 1.3 19 16.7 101780 47
2011-08-16 07:23:58 51°19.577 2°58.17 1.2 12 16.7 101780 47
2011-08-16 07:24:02 51°19.581 2°58.189 1.6 8 16.7 101780 47
2011-08-16 07:24:07 51°19.586 2°58.213 2.4 14 16.7 101780 47
2011-08-16 07:24:12 51°19.592 2°58.236 2.2 10 16.7 101780 47
2011-08-16 07:24:18 51°19.599 2°58.265 2.6 16 16.7 101780 47
2011-08-16 07:24:23 51°19.604 2°58.288 2.4 16 16.7 101780 47
2011-08-16 07:24:27 51°19.609 2°58.307 1.8 15 16.7 101780 47
2011-08-16 07:24:33 51°19.617 2°58.335 1.7 18 16.7 101780 48
2011-08-16 07:24:38 51°19.623 2°58.358 1.8 22 16.7 101780 47
2011-08-16 07:24:43 51°19.629 2°58.382 1.5 19 16.7 101780 47
2011-08-16 07:24:47 51°19.634 2°58.4 1.6 17 16.7 101780 47
2011-08-16 07:24:52 51°19.64 2°58.424 1.3 20 16.7 101780 47
2011-08-16 07:24:58 51°19.648 2°58.452 0.6 22 16.7 101780 47
2011-08-16 07:25:03 51°19.653 2°58.475 0.9 22 16.7 101780 47
2011-08-16 07:25:07 51°19.659 2°58.494 0.4 14 16.7 101780 47
2011-08-16 07:25:12 51°19.665 2°58.517 0.6 7 16.7 101780 47
2011-08-16 07:25:18 51°19.673 2°58.544 0.8 6 16.7 101780 47
2011-08-16 07:25:23 51°19.68 2°58.567 1.4 14 16.7 101780 48
2011-08-16 07:25:27 51°19.686 2°58.586 1.8 20 16.7 101780 48
2011-08-16 07:25:33 51°19.695 2°58.613 1.2 21 16.7 101780 47
2011-08-16 07:25:38 51°19.702 2°58.635 1.6 19 16.7 101780 47
2011-08-16 07:25:43 51°19.709 2°58.658 1.7 20 16.7 101780 48
2011-08-16 07:25:47 51°19.715 2°58.676 1.9 17 16.7 101780 48
2011-08-16 07:25:52 51°19.722 2°58.698 1.9 23 16.7 101780 46
2011-08-16 07:25:58 51°19.73 2°58.726 2 20 16.7 101780 46
2011-08-16 07:26:02 51°19.735 2°58.744 2 20 16.7 101780 47
2011-08-16 07:26:07 51°19.742 2°58.767 1.8 17 16.7 101790 47
2011-08-16 07:26:12 51°19.748 2°58.791 1.8 23 16.7 101790 47
2011-08-16 07:26:18 51°19.755 2°58.818 2.1 22 16.7 101790 47
2011-08-16 07:26:23 51°19.761 2°58.841 2.2 20 16.7 101780 47
2011-08-16 07:26:27 51°19.766 2°58.86 3 11 16.7 101780 47
2011-08-16 07:26:33 51°19.773 2°58.888 1.9 15 16.7 101780 47
2011-08-16 07:26:38 51°19.78 2°58.911 2.2 22 16.7 101790 47
2011-08-16 07:26:43 51°19.786 2°58.934 1.8 18 16.7 101790 47
2011-08-16 07:26:47 51°19.791 2°58.952 2.4 23 16.7 101790 47
2011-08-16 07:26:52 51°19.798 2°58.974 1.4 21 16.7 101790 48
2011-08-16 07:26:58 51°19.807 2°59.001 1.2 21 16.7 101790 48
2011-08-16 07:27:03 51°19.815 2°59.023 0.3 18 16.7 101790 48
2011-08-16 07:27:07 51°19.821 2°59.04 0.2 21 16.7 101790 48
2011-08-16 07:27:12 51°19.829 2°59.061 0.1 25 16.7 101780 47
2011-08-16 07:27:18 51°19.839 2°59.087 0.5 19 16.7 101780 47
2011-08-16 07:27:23 51°19.847 2°59.108 1 15 16.7 101790 47
2011-08-16 07:27:27 51°19.854 2°59.125 1.4 22 16.7 101790 47
2011-08-16 07:27:33 51°19.863 2°59.151 1.7 25 16.7 101790 47
2011-08-16 07:27:38 51°19.871 2°59.173 1.8 20 16.7 101790 47
2011-08-16 07:27:43 51°19.879 2°59.194 1.3 22 16.7 101790 47
2011-08-16 07:27:47 51°19.885 2°59.211 1.5 22 16.7 101790 47
2011-08-16 07:27:52 51°19.893 2°59.233 1.2 25 16.7 101780 48
2011-08-16 07:27:57 51°19.901 2°59.255 1.7 23 16.7 101780 48
2011-08-16 07:28:03 51°19.91 2°59.281 1.3 25 16.7 101790 47
2011-08-16 07:28:07 51°19.916 2°59.298 2.3 22 16.7 101790 47
2011-08-16 07:28:13 51°19.924 2°59.325 1.2 24 16.7 101790 47
2011-08-16 07:28:18 51°19.931 2°59.347 1.9 14 16.7 101790 47
2011-08-16 07:28:23 51°19.937 2°59.37 1.5 24 16.7 101790 47
2011-08-16 07:28:27 51°19.943 2°59.387 1.9 23 16.7 101790 46
2011-08-16 07:28:33 51°19.951 2°59.414 1.3 26 16.7 101790 46
2011-08-16 07:28:38 51°19.957 2°59.436 1.6 10 16.7 101790 46
2011-08-16 07:28:43 51°19.964 2°59.458 2.1 23 16.7 101790 48
2011-08-16 07:28:47 51°19.969 2°59.476 1.9 20 16.7 101790 48
2011-08-16 07:28:53 51°19.977 2°59.503 2 21 16.7 101790 47
2011-08-16 07:28:58 51°19.983 2°59.526 1.4 16 16.7 101790 47
2011-08-16 07:29:03 51°19.989 2°59.548 1.9 16 16.7 101790 47
2011-08-16 07:29:07 51°19.994 2°59.566 1.8 17 16.7 101790 47
2011-08-16 07:29:12 51°20.001 2°59.588 2.2 16 16.7 101790 48
2011-08-16 07:29:18 51°20.008 2°59.614 2.3 18 16.7 101790 47
2011-08-16 07:29:23 51°20.014 2°59.637 2.3 21 16.7 101790 47
2011-08-16 07:29:27 51°20.019 2°59.655 2.2 23 16.7 101790 47
2011-08-16 07:29:32 51°20.025 2°59.677 2.2 21 16.7 101790 47
2011-08-16 07:29:38 51°20.031 2°59.704 1.9 15 16.7 101790 47
2011-08-16 07:29:43 51°20.037 2°59.727 2.2 19 16.7 101790 47
2011-08-16 07:29:47 51°20.04 2°59.745 1.9 21 16.7 101790 47
2011-08-16 07:29:52 51°20.046 2°59.768 2.3 20 16.7 101780 47
2011-08-16 07:29:57 51°20.051 2°59.791 2.5 21 16.7 101780 47
2011-08-16 07:30:03 51°20.058 2°59.818 1.9 21 16.7 101790 48
2011-08-16 07:30:07 51°20.063 2°59.836 2.3 24 16.7 101790 47
2011-08-16 07:30:13 51°20.069 2°59.863 2.2 24 16.7 101790 47
2011-08-16 07:30:18 51°20.075 2°59.886 2.5 25 16.7 101790 47
2011-08-16 07:30:23 51°20.081 2°59.908 2.2 25 16.7 101790 48
2011-08-16 07:30:27 51°20.085 2°59.926 1.8 20 16.7 101790 48
2011-08-16 07:30:33 51°20.092 2°59.953 1.7 21 16.7 101780 47
2011-08-16 07:30:38 51°20.097 2°59.976 1.7 21 16.7 101780 47
2011-08-16 07:30:43 51°20.102 2°59.999 1.8 6 16.7 101790 47
2011-08-16 07:30:48 51°20.107 3°0.022 1 5 16.7 101790 47
2011-08-16 07:30:52 51°20.11 3°0.04 2.8 26 16.7 101790 48
2011-08-16 07:30:58 51°20.116 3°0.068 2.4 18 16.7 101790 48
2011-08-16 07:31:02 51°20.119 3°0.086 2.1 7 16.7 101790 47
2011-08-16 07:31:07 51°20.125 3°0.109 1.9 12 16.7 101790 47
2011-08-16 07:31:13 51°20.131 3°0.135 1.3 8 16.7 101790 46
2011-08-16 07:31:18 51°20.136 3°0.158 1.9 8 16.7 101790 48
2011-08-16 07:31:23 51°20.142 3°0.18 2.3 13 16.7 101790 48
2011-08-16 07:31:27 51°20.147 3°0.198 1.7 15 16.7 101790 48
2011-08-16 07:31:32 51°20.153 3°0.219 1.4 13 16.7 101790 48
2011-08-16 07:31:38 51°20.162 3°0.245 1.3 3 16.7 101790 48
2011-08-16 07:31:43 51°20.169 3°0.266 1.1 7 16.7 101790 48
2011-08-16 07:31:47 51°20.175 3°0.282 1.4 8 16.7 101790 48
2011-08-16 07:31:52 51°20.183 3°0.303 1.3 13 16.7 101790 47
2011-08-16 07:31:58 51°20.192 3°0.328 2 11 16.7 101790 47
2011-08-16 07:32:03 51°20.2 3°0.348 1.1 6 16.7 101790 47
2011-08-16 07:32:07 51°20.206 3°0.365 0.7 6 16.7 101790 47
2011-08-16 07:32:13 51°20.215 3°0.389 0.5 6 16.7 101790 47
2011-08-16 07:32:18 51°20.223 3°0.41 1.5 12 16.7 101790 47
2011-08-16 07:32:23 51°20.231 3°0.43 0.5 10 16.7 101790 48
2011-08-16 07:32:27 51°20.237 3°0.447 0.3 10 16.7 101790 48
2011-08-16 07:32:33 51°20.246 3°0.471 0.3 12 16.7 101790 48
2011-08-16 07:32:38 51°20.254 3°0.492 0.7 14 16.7 101790 48
2011-08-16 07:32:42 51°20.26 3°0.508 0.1 9 16.7 101790 47
2011-08-16 07:32:48 51°20.268 3°0.533 0.6 357 16.7 101790 47
2011-08-16 07:32:52 51°20.274 3°0.55 1.5 6 16.7 101790 48
2011-08-16 07:32:58 51°20.281 3°0.576 2 11 16.7 101790 48
2011-08-16 07:33:02 51°20.286 3°0.593 1.8 8 16.7 101790 48
2011-08-16 07:33:07 51°20.291 3°0.615 2.2 8 16.7 101790 47
2011-08-16 07:33:13 51°20.297 3°0.642 2 8 16.7 101790 47
2011-08-16 07:33:18 51°20.302 3°0.665 1.7 4 16.7 101790 48
2011-08-16 07:33:23 51°20.306 3°0.687 2.7 8 16.7 101790 48
2011-08-16 07:33:27 51°20.31 3°0.705 2.7 9 16.7 101790 48
2011-08-16 07:33:33 51°20.316 3°0.732 3 9 16.7 101790 47
2011-08-16 07:33:38 51°20.32 3°0.755 2.7 6 16.7 101790 47
2011-08-16 07:33:43 51°20.325 3°0.777 2.5 5 16.7 101790 47
2011-08-16 07:33:47 51°20.329 3°0.795 3 8 16.7 101790 47
2011-08-16 07:33:52 51°20.334 3°0.817 2.4 7 16.7 101790 45
2011-08-16 07:33:58 51°20.342 3°0.843 2.8 4 16.7 101790 45
2011-08-16 07:34:03 51°20.348 3°0.864 1.8 6 16.7 101790 47
2011-08-16 07:34:07 51°20.353 3°0.881 1.9 6 16.7 101790 47
2011-08-16 07:34:12 51°20.36 3°0.902 1.4 359 16.6 101790 48
2011-08-16 07:34:18 51°20.369 3°0.927 1.4 6 16.6 101790 47
2011-08-16 07:34:23 51°20.375 3°0.948 1.9 4 16.6 101790 47
2011-08-16 07:34:27 51°20.382 3°0.964 2.2 8 16.6 101790 47
2011-08-16 07:34:32 51°20.388 3°0.985 1.7 5 16.6 101790 47
2011-08-16 07:34:38 51°20.397 3°1.009 3.3 8 16.6 101790 47
2011-08-16 07:34:43 51°20.404 3°1.03 3 23 16.6 101790 48
2011-08-16 07:34:47 51°20.409 3°1.047 3.2 17 16.6 101790 48
2011-08-16 07:34:52 51°20.416 3°1.068 2.2 11 16.6 101790 48
2011-08-16 07:34:57 51°20.424 3°1.088 2.8 13 16.6 101790 48
2011-08-16 07:35:03 51°20.432 3°1.113 3 14 16.6 101790 48
2011-08-16 07:35:07 51°20.437 3°1.13 3.1 11 16.6 101790 48
2011-08-16 07:35:13 51°20.445 3°1.155 3.4 15 16.6 101790 48
2011-08-16 07:35:18 51°20.452 3°1.176 2.6 16 16.6 101790 48
2011-08-16 07:35:23 51°20.458 3°1.197 2.9 5 16.6 101790 48
2011-08-16 07:35:27 51°20.463 3°1.214 3.6 14 16.6 101790 47
2011-08-16 07:35:33 51°20.471 3°1.239 3.1 14 16.6 101790 47
2011-08-16 07:35:38 51°20.478 3°1.26 3.7 16 16.6 101790 47
2011-08-16 07:35:43 51°20.484 3°1.281 3.6 19 16.6 101790 48
2011-08-16 07:35:47 51°20.489 3°1.299 3.9 19 16.6 101790 48
2011-08-16 07:35:52 51°20.495 3°1.32 3.4 14 16.6 101800 48
2011-08-16 07:35:58 51°20.503 3°1.346 3.4 16 16.6 101800 48
2011-08-16 07:36:03 51°20.508 3°1.367 3.6 20 16.6 101790 48
2011-08-16 07:36:07 51°20.513 3°1.384 3.3 19 16.6 101790 48
2011-08-16 07:36:12 51°20.517 3°1.406 3.1 19 16.6 101800 47
2011-08-16 07:36:18 51°20.523 3°1.433 3.1 16 16.5 101790 48
2011-08-16 07:36:23 51°20.528 3°1.455 1.7 21 16.5 101790 48
2011-08-16 07:36:27 51°20.531 3°1.473 2.6 8 16.5 101790 48
2011-08-16 07:36:32 51°20.536 3°1.495 2.8 15 16.5 101790 46
2011-08-16 07:36:37 51°20.541 3°1.518 2.4 14 16.5 101790 46
2011-08-16 07:36:43 51°20.546 3°1.544 2.5 14 16.5 101790 48
2011-08-16 07:36:47 51°20.55 3°1.562 2.7 11 16.5 101800 48
2011-08-16 07:36:52 51°20.555 3°1.585 2.9 14 16.5 101800 48
2011-08-16 07:36:57 51°20.559 3°1.607 2.5 9 16.5 101800 48
2011-08-16 07:37:03 51°20.565 3°1.634 2.9 14 16.5 101800 47
2011-08-16 07:37:07 51°20.569 3°1.652 2.8 13 16.5 101790 48
2011-08-16 07:37:13 51°20.574 3°1.679 2.3 16 16.5 101790 48
2011-08-16 07:37:18 51°20.579 3°1.701 2.2 19 16.5 101790 48
2011-08-16 07:37:23 51°20.584 3°1.724 2.1 22 16.5 101790 47
2011-08-16 07:37:27 51°20.589 3°1.741 0.9 19 16.5 101800 47
2011-08-16 07:37:32 51°20.595 3°1.762 0.2 4 16.5 101800 47
2011-08-16 07:37:38 51°20.603 3°1.787 2.2 9 16.5 101800 47
2011-08-16 07:37:42 51°20.608 3°1.805 1.7 11 16.5 101790 47
2011-08-16 07:37:47 51°20.615 3°1.825 1.1 10 16.5 101790 47
2011-08-16 07:37:52 51°20.622 3°1.846 0.7 7 16.5 101800 47
2011-08-16 07:37:58 51°20.63 3°1.871 0.6 6 16.5 101800 47
2011-08-16 07:38:03 51°20.637 3°1.891 0.1 27 16.5 101800 47
2011-08-16 07:38:07 51°20.643 3°1.908 1.1 13 16.5 101800 47
2011-08-16 07:38:12 51°20.65 3°1.929 2 11 16.6 101800 48
2011-08-16 07:38:18 51°20.658 3°1.955 3.1 22 16.6 101800 48
2011-08-16 07:38:23 51°20.664 3°1.976 2.4 14 16.6 101800 48
2011-08-16 07:38:27 51°20.669 3°1.993 3 17 16.6 101800 48
2011-08-16 07:38:32 51°20.675 3°2.014 2.3 16 16.6 101800 48
2011-08-16 07:38:38 51°20.683 3°2.04 2.4 12 16.6 101800 48
2011-08-16 07:38:43 51°20.689 3°2.061 2.4 19 16.6 101800 48
2011-08-16 07:38:47 51°20.695 3°2.078 2.5 21 16.6 101800 47
2011-08-16 07:38:52 51°20.701 3°2.1 2 23 16.6 101800 47
2011-08-16 07:38:58 51°20.708 3°2.126 2.2 19 16.6 101800 47
2011-08-16 07:39:03 51°20.714 3°2.147 2.1 14 16.7 101800 48
2011-08-16 07:39:07 51°20.72 3°2.164 2 6 16.7 101800 48
2011-08-16 07:39:12 51°20.726 3°2.186 3.1 19 16.7 101800 47
2011-08-16 07:39:18 51°20.733 3°2.212 3.5 19 16.7 101800 47
2011-08-16 07:39:23 51°20.739 3°2.233 3.6 23 16.7 101800 47
2011-08-16 07:39:28 51°20.746 3°2.255 3.1 14 16.7 101800 47
2011-08-16 07:39:32 51°20.751 3°2.272 3.2 19 16.7 101800 48
2011-08-16 07:39:38 51°20.758 3°2.298 3.5 17 16.7 101800 48
2011-08-16 07:39:42 51°20.762 3°2.316 3.2 18 16.7 101800 47
2011-08-16 07:39:47 51°20.768 3°2.338 3.4 16 16.7 101800 48
2011-08-16 07:39:53 51°20.774 3°2.365 3.8 20 16.7 101800 48
2011-08-16 07:39:58 51°20.779 3°2.387 3.8 17 16.7 101800 48
2011-08-16 07:40:03 51°20.784 3°2.41 3.2 22 16.7 101800 48
2011-08-16 07:40:07 51°20.787 3°2.428 3.4 21 16.7 101800 48
2011-08-16 07:40:13 51°20.793 3°2.454 3.7 20 16.7 101800 47
2011-08-16 07:40:18 51°20.797 3°2.477 3.6 16 16.7 101800 47
2011-08-16 07:40:23 51°20.802 3°2.5 3.4 19 16.7 101800 47
2011-08-16 07:40:27 51°20.805 3°2.518 4.3 17 16.7 101800 48
2011-08-16 07:40:32 51°20.809 3°2.541 3.7 12 16.7 101800 48
2011-08-16 07:40:38 51°20.815 3°2.568 4.1 21 16.7 101800 48
2011-08-16 07:40:43 51°20.82 3°2.591 3.2 8 16.7 101800 48
2011-08-16 07:40:47 51°20.824 3°2.609 2.6 25 16.7 101800 48
2011-08-16 07:40:52 51°20.829 3°2.631 3 17 16.6 101800 47
2011-08-16 07:40:58 51°20.836 3°2.657 2.8 20 16.7 101800 48
2011-08-16 07:41:03 51°20.842 3°2.679 3.4 18 16.7 101800 48
2011-08-16 07:41:07 51°20.846 3°2.697 2.8 17 16.7 101800 48
2011-08-16 07:41:12 51°20.852 3°2.718 3.1 14 16.7 101800 48
2011-08-16 07:41:18 51°20.859 3°2.744 3.3 13 16.7 101800 48
2011-08-16 07:41:23 51°20.866 3°2.765 2.6 23 16.7 101800 47
2011-08-16 07:41:27 51°20.871 3°2.782 2.2 22 16.7 101800 48
2011-08-16 07:41:32 51°20.878 3°2.803 2 20 16.7 101800 48
2011-08-16 07:41:38 51°20.886 3°2.828 2.1 22 16.7 101800 48
2011-08-16 07:41:42 51°20.892 3°2.845 1.5 16 16.7 101800 48
2011-08-16 07:41:47 51°20.898 3°2.866 3 12 16.7 101800 46
2011-08-16 07:41:53 51°20.906 3°2.892 1.7 17 16.7 101800 46
2011-08-16 07:41:58 51°20.912 3°2.914 2 20 16.6 101800 47
2011-08-16 07:42:03 51°20.918 3°2.935 2.6 23 16.6 101800 47
2011-08-16 07:42:07 51°20.923 3°2.952 3.2 13 16.6 101800 47
2011-08-16 07:42:13 51°20.931 3°2.978 3 18 16.6 101800 48
2011-08-16 07:42:18 51°20.937 3°2.999 2.4 18 16.6 101800 48
2011-08-16 07:42:23 51°20.944 3°3.02 3.5 16 16.6 101800 47
2011-08-16 07:42:27 51°20.949 3°3.038 3.3 22 16.6 101800 47
2011-08-16 07:42:33 51°20.957 3°3.062 3.4 20 16.6 101800 48
2011-08-16 07:42:38 51°20.964 3°3.084 2.7 20 16.6 101800 48
2011-08-16 07:42:43 51°20.97 3°3.105 3 22 16.6 101810 47
2011-08-16 07:42:47 51°20.975 3°3.122 2.3 17 16.6 101810 47
2011-08-16 07:42:52 51°20.982 3°3.143 3.3 18 16.6 101800 48
2011-08-16 07:42:58 51°20.989 3°3.168 3.1 18 16.6 101800 47
2011-08-16 07:43:03 51°20.996 3°3.189 2.6 19 16.6 101800 47
2011-08-16 07:43:07 51°21 3°3.207 2.6 18 16.6 101800 47
2011-08-16 07:43:12 51°21.006 3°3.228 3.1 17 16.6 101800 47
2011-08-16 07:43:18 51°21.013 3°3.254 3 16 16.6 101800 47
2011-08-16 07:43:23 51°21.018 3°3.276 3.6 24 16.6 101800 47
2011-08-16 07:43:27 51°21.022 3°3.294 4.1 21 16.6 101810 47
2011-08-16 07:43:32 51°21.026 3°3.316 3.9 16 16.6 101810 47
2011-08-16 07:43:37 51°21.03 3°3.338 4.2 17 16.6 101810 47
2011-08-16 07:43:43 51°21.035 3°3.365 4.2 22 16.6 101800 48
2011-08-16 07:43:47 51°21.038 3°3.383 3.8 21 16.6 101800 47
2011-08-16 07:43:53 51°21.043 3°3.41 3.7 20 16.6 101800 47
2011-08-16 07:43:58 51°21.048 3°3.432 3 23 16.6 101800 47
2011-08-16 07:44:03 51°21.053 3°3.454 3.5 17 16.6 101800 48
2011-08-16 07:44:07 51°21.058 3°3.471 3.5 20 16.6 101800 48
2011-08-16 07:44:13 51°21.065 3°3.497 3.4 16 16.6 101800 48
2011-08-16 07:44:18 51°21.071 3°3.518 4.1 16 16.6 101800 48
2011-08-16 07:44:23 51°21.077 3°3.539 2.7 14 16.6 101800 48
2011-08-16 07:44:27 51°21.082 3°3.556 2.5 17 16.6 101800 48
2011-08-16 07:44:32 51°21.089 3°3.577 2.7 27 16.6 101800 46
2011-08-16 07:44:38 51°21.096 3°3.602 2.6 25 16.6 101800 46
2011-08-16 07:44:42 51°21.101 3°3.62 2.9 14 16.6 101800 48
2011-08-16 07:44:47 51°21.107 3°3.641 3.3 14 16.6 101800 48
2011-08-16 07:44:53 51°21.114 3°3.667 3.7 18 16.6 101800 48
2011-08-16 07:44:58 51°21.119 3°3.689 4.1 15 16.6 101800 48
2011-08-16 07:45:03 51°21.124 3°3.711 3.3 18 16.6 101800 48
2011-08-16 07:45:07 51°21.127 3°3.729 4.1 19 16.6 101800 48
2011-08-16 07:45:12 51°21.132 3°3.751 3.7 22 16.6 101800 48
2011-08-16 07:45:18 51°21.137 3°3.778 3.7 21 16.6 101800 48
2011-08-16 07:45:23 51°21.142 3°3.8 3.6 18 16.6 101800 48
2011-08-16 07:45:27 51°21.146 3°3.818 4.3 21 16.6 101800 48
2011-08-16 07:45:32 51°21.15 3°3.84 3.6 19 16.6 101800 48
2011-08-16 07:45:37 51°21.155 3°3.863 3.7 21 16.6 101800 48
2011-08-16 07:45:43 51°21.16 3°3.89 2.8 21 16.6 101800 48
2011-08-16 07:45:47 51°21.164 3°3.908 3.2 24 16.6 101800 48
2011-08-16 07:45:53 51°21.17 3°3.935 2.1 20 16.6 101800 48
2011-08-16 07:45:58 51°21.174 3°3.957 3.2 15 16.6 101800 48
2011-08-16 07:46:03 51°21.179 3°3.979 3.8 12 16.6 101800 48
2011-08-16 07:46:07 51°21.183 3°3.997 3.6 16 16.6 101800 48
2011-08-16 07:46:12 51°21.188 3°4.019 4 19 16.6 101800 48
2011-08-16 07:46:18 51°21.194 3°4.046 3.5 23 16.6 101800 48
2011-08-16 07:46:22 51°21.198 3°4.063 2.9 23 16.6 101800 47
2011-08-16 07:46:27 51°21.203 3°4.085 1.9 21 16.6 101800 48
2011-08-16 07:46:32 51°21.209 3°4.107 3.3 20 16.6 101800 48
2011-08-16 07:46:38 51°21.215 3°4.134 3.2 20 16.6 101800 48
2011-08-16 07:46:43 51°21.221 3°4.155 2.6 22 16.6 101800 48
2011-08-16 07:46:47 51°21.226 3°4.172 2.1 23 16.6 101800 48
2011-08-16 07:46:53 51°21.233 3°4.198 2.3 23 16.6 101800 48
2011-08-16 07:46:58 51°21.24 3°4.219 2.1 25 16.6 101800 48
2011-08-16 07:47:03 51°21.247 3°4.241 2.3 15 16.6 101800 48
2011-08-16 07:47:07 51°21.252 3°4.257 2.8 21 16.6 101800 48
2011-08-16 07:47:13 51°21.26 3°4.283 3.1 18 16.6 101800 46
2011-08-16 07:47:18 51°21.267 3°4.304 2.6 16 16.6 101800 46
2011-08-16 07:47:23 51°21.273 3°4.325 3 22 16.5 101800 48
2011-08-16 07:47:27 51°21.279 3°4.342 3.1 17 16.5 101800 48
2011-08-16 07:47:32 51°21.285 3°4.363 2.9 24 16.6 101800 48
2011-08-16 07:47:38 51°21.292 3°4.389 3 24 16.6 101800 48
2011-08-16 07:47:43 51°21.298 3°4.411 3.3 21 16.6 101800 48
2011-08-16 07:47:47 51°21.302 3°4.429 3.2 18 16.6 101800 48
2011-08-16 07:47:52 51°21.306 3°4.451 3.7 21 16.6 101800 48
2011-08-16 07:47:58 51°21.312 3°4.478 3.3 17 16.6 101800 48
2011-08-16 07:48:03 51°21.317 3°4.5 3.3 21 16.6 101800 47
2011-08-16 07:48:07 51°21.322 3°4.518 3.4 21 16.6 101800 47
2011-08-16 07:48:12 51°21.327 3°4.539 2.9 21 16.6 101800 47
2011-08-16 07:48:18 51°21.334 3°4.566 2.9 24 16.6 101800 47
2011-08-16 07:48:23 51°21.341 3°4.587 2.7 12 16.6 101800 48
2011-08-16 07:48:27 51°21.345 3°4.605 2.8 22 16.6 101800 48
2011-08-16 07:48:32 51°21.35 3°4.627 2.5 20 16.6 101800 48
2011-08-16 07:48:38 51°21.357 3°4.654 2 14 16.6 101800 48
2011-08-16 07:48:43 51°21.363 3°4.676 1.6 11 16.5 101800 47
2011-08-16 07:48:47 51°21.368 3°4.693 2.3 16 16.5 101800 47
2011-08-16 07:48:52 51°21.374 3°4.715 3.1 17 16.6 101800 48
2011-08-16 07:48:58 51°21.381 3°4.742 3.2 23 16.6 101800 48
2011-08-16 07:49:03 51°21.387 3°4.763 2.9 23 16.6 101800 48
2011-08-16 07:49:07 51°21.392 3°4.781 3.1 23 16.6 101800 48
2011-08-16 07:49:13 51°21.399 3°4.807 3 23 16.6 101800 48
2011-08-16 07:49:18 51°21.405 3°4.829 3.1 22 16.6 101800 48
2011-08-16 07:49:23 51°21.41 3°4.852 2.9 23 16.6 101800 49
2011-08-16 07:49:27 51°21.414 3°4.87 3 22 16.6 101800 49
2011-08-16 07:49:33 51°21.419 3°4.897 3.2 20 16.6 101800 48
2011-08-16 07:49:38 51°21.423 3°4.92 3.3 21 16.6 101800 48
2011-08-16 07:49:43 51°21.427 3°4.944 3.7 18 16.6 101800 48
2011-08-16 07:49:47 51°21.43 3°4.962 4.1 19 16.6 101800 48
2011-08-16 07:49:52 51°21.434 3°4.986 2.3 20 16.6 101800 46
2011-08-16 07:49:58 51°21.439 3°5.013 3 17 16.6 101800 46
2011-08-16 07:50:03 51°21.443 3°5.037 2 14 16.6 101800 47
2011-08-16 07:50:07 51°21.446 3°5.055 3.1 15 16.6 101800 47
2011-08-16 07:50:12 51°21.45 3°5.079 3.3 7 16.6 101800 48
2011-08-16 07:50:18 51°21.456 3°5.107 3.6 14 16.6 101800 48
2011-08-16 07:50:23 51°21.46 3°5.13 4.2 15 16.6 101800 48
2011-08-16 07:50:27 51°21.464 3°5.149 3.7 14 16.6 101800 48
2011-08-16 07:50:32 51°21.468 3°5.172 3.8 14 16.6 101800 48
2011-08-16 07:50:38 51°21.473 3°5.2 3.9 16 16.6 101800 48
2011-08-16 07:50:43 51°21.477 3°5.224 4.5 8 16.6 101800 48
2011-08-16 07:50:47 51°21.48 3°5.243 3.5 16 16.6 101800 48
2011-08-16 07:50:52 51°21.484 3°5.266 5 14 16.6 101800 48
2011-08-16 07:50:58 51°21.489 3°5.294 4.6 17 16.6 101800 48
2011-08-16 07:51:03 51°21.493 3°5.318 4.5 17 16.6 101800 48
2011-08-16 07:51:08 51°21.497 3°5.341 4.3 19 16.6 101800 48
2011-08-16 07:51:12 51°21.501 3°5.36 4.7 17 16.6 101800 48
2011-08-16 07:51:18 51°21.506 3°5.388 4.5 18 16.6 101800 48
2011-08-16 07:51:23 51°21.51 3°5.411 4.5 24 16.6 101800 48
2011-08-16 07:51:27 51°21.513 3°5.43 4.4 15 16.6 101800 48
2011-08-16 07:51:33 51°21.519 3°5.457 4.1 15 16.6 101800 47
2011-08-16 07:51:38 51°21.523 3°5.481 4 9 16.6 101800 47
2011-08-16 07:51:43 51°21.528 3°5.504 3.3 19 16.6 101800 47
2011-08-16 07:51:47 51°21.532 3°5.522 2.9 22 16.6 101800 47
2011-08-16 07:51:52 51°21.537 3°5.545 2.3 24 16.5 101800 47
2011-08-16 07:51:58 51°21.544 3°5.571 2.8 14 16.5 101800 47
2011-08-16 07:52:03 51°21.55 3°5.593 2.8 23 16.6 101800 47
2011-08-16 07:52:07 51°21.555 3°5.611 2.7 26 16.6 101800 47
2011-08-16 07:52:12 51°21.561 3°5.633 3.1 21 16.6 101800 48
2011-08-16 07:52:17 51°21.567 3°5.655 2.7 19 16.6 101800 48
2011-08-16 07:52:23 51°21.575 3°5.682 2.9 22 16.6 101800 48
2011-08-16 07:52:27 51°21.579 3°5.7 2.9 20 16.6 101800 48
2011-08-16 07:52:32 51°21.585 3°5.723 2 14 16.6 101800 47
2011-08-16 07:52:38 51°21.59 3°5.751 2.8 13 16.6 101800 47
2011-08-16 07:52:43 51°21.595 3°5.774 3.4 14 16.5 101800 47
2011-08-16 07:52:47 51°21.598 3°5.793 3.2 15 16.5 101800 47
2011-08-16 07:52:52 51°21.603 3°5.817 3 11 16.5 101800 48
2011-08-16 07:52:58 51°21.608 3°5.845 2.7 14 16.5 101800 48
2011-08-16 07:53:03 51°21.612 3°5.868 2.5 9 16.5 101800 47
2011-08-16 07:53:08 51°21.616 3°5.892 1.9 15 16.5 101800 47
2011-08-16 07:53:12 51°21.62 3°5.911 2.6 9 16.5 101800 47
2011-08-16 07:53:18 51°21.624 3°5.939 2.7 15 16.5 101800 47
2011-08-16 07:53:22 51°21.627 3°5.958 4.1 11 16.5 101800 47
2011-08-16 07:53:27 51°21.632 3°5.982 3.9 13 16.5 101800 47
2011-08-16 07:53:32 51°21.636 3°6.005 3.6 16 16.5 101800 47
2011-08-16 07:53:38 51°21.641 3°6.033 5.2 16 16.5 101800 47
2011-08-16 07:53:43 51°21.646 3°6.057 4.2 18 16.5 101790 47